Flag for Switzerland Weather past 2 weeks in Locarno, Ticino, Switzerland

Now
60 °F

Cool.


Feels Like: 60 °F
Forecast: 54 / 71 °F
Wind: 2 mph from North

Location: Locarno-Monti

Current Time: Aug 2, 2015 at 4:37:12 AM

Latest Report: Aug 2, 2015 at 3:00 AM


Visibility: N/A

Pressure: 30.04 "Hg

Humidity: 95%

Dew point: 58 °F

Location of LocarnoLocation

Historic Weather in Locarno — Graph

°F

Locarno temperature yesterday

Maximum temperature yesterday: 72 °F (at 1:00 AM)
Minimum temperature yesterday: 61 °F (at 9:00 AM)
Average temperature yesterday: 65 °F

Past Weeks' High & Low Weather Summary

 TemperatureHumidityPressure
High97 °F (Jul 22, 4:00 PM)97% (Jul 27, 2:00 AM)30.08 "Hg (Jul 27, 2:00 AM)
Low60 °F (Aug 2, 3:00 AM)27% (Jul 26, 2:00 AM)29.61 "Hg (Jul 27, 5:00 PM)
Average77 °F58%29.85 "Hg
* Reported Jul 18 3:00 AM — Aug 2 3:00 AM, Locarno, Weather by CustomWeather, © 2015

Note: Actual official high and low records may vary slightly from our data, if they occured in-between our weather recording intervals... More about our weather records

Advertising

Locarno weather history for previous 24 hours

 ConditionsComfort  
Time TempWeatherWind HumidityBarometerVisibility
3:00 AM
Sun, Aug 2
60 °FCool.2 mph95%30.04 "HgN/A
2:00 AM61 °FCool.1 mph91%30.04 "HgN/A
1:00 AM62 °FCool.2 mph89%30.05 "HgN/A
12:00 AM62 °FCool.1 mph90%30.03 "HgN/A
10:00 PM
Sat, Aug 1
62 °FCool.3 mph91%30.03 "HgN/A
9:00 PM62 °FCool.1 mph89%30.01 "HgN/A
8:00 PM62 °FOvercast.1 mph87%30.01 "Hg9 mi
7:00 PM62 °FMild.1 mph90%30.02 "HgN/A
6:00 PM63 °FMild.2 mph86%30.03 "HgN/A
5:00 PM64 °FLight rain. Overcast.2 mph87%30.02 "Hg5 mi
4:00 PM64 °FMild.3 mph85%30.02 "HgN/A
3:00 PM65 °FMild.3 mph78%30.04 "HgN/A
2:00 PM64 °FOvercast.3 mph85%30.05 "Hg6 mi
1:00 PM63 °FMild.2 mph91%30.05 "HgN/A
12:00 PM62 °FCool.3 mph96%30.05 "HgN/A
11:00 AM63 °FDrizzle. Overcast.1 mph87%30.05 "Hg6 mi
10:00 AM61 °FCool.2 mph93%30.05 "HgN/A
9:00 AM61 °FCool.5 mph91%30.03 "HgN/A
8:00 AM62 °FLight rain. Overcast.6 mph89%30.02 "Hg2 mi
7:00 AM62 °FCool.3 mph88%30.00 "HgN/A
4:00 AM71 °FMild.2 mph53%29.95 "HgN/A
Weather by CustomWeather, © 2015

See weather overviewHow to use our weather pages